Location: Killam
(52.7910°N, 111.8608°W)
Time: 11:36:03
(UTC+00:00)

ISS - Pass Details

Date: 25 January 2026
Orbit: 413 x 428 km, 51.6° (Epoch: 17 February)

Event Time Altitude Azimuth Distance (km) Brightness Sun altitude
Rises 02:14:22 0° 280° (W) 2,367 1.5 -20.2°
Reaches altitude 10° 02:16:33 10° 272° (W) 1,504 0.2 -20.5°
Maximum altitude 02:19:41 37° 204° (SSW) 676 -2.6 -21.0°
Enters shadow 02:20:05 35° 186° (S) 696 -2.6 -21.1°
